Location: Austin
(30.3000°N, 97.7500°W)
Time: 23:59:18
(UTC-05:00)

Meteor 2-5 Rocket - Pass Details

Date: 08 April 2026
Orbit: 831 x 911 km, 81.2° (Epoch: 20 April)

Event Time Altitude Azimuth Distance (km) Brightness Sun altitude
Rises 22:03:49 0° 346° (NNW) 3,377 7.4 -27.3°
Reaches altitude 10° 22:06:15 10° 342° (NNW) 2,441 6.6 -27.7°
Maximum altitude 22:11:37 56° 266° (W) 990 4.2 -28.7°
Enters shadow 22:12:59 44° 219° (SW) 1,144 4.3 -29.0°
